Billings, MT (59101)

10:03 AM MDT on August 29, 2015 (GMT -0600)
South of Castle Rock Park | | Change Station
CLOSE
Current Station
Personal Weather Station
Location: Billings, MT
Elevation: 3297 ft
Nearby Weather Stations
Active Advisory: Fire Weather Warning

Elev 3297 ft 45.82 °N, 108.50 °W | Updated 10 seconds ago

Mostly Cloudy
Mostly Cloudy
75.2 °F
Feels Like 78 °F
N
0.4
Wind Variable Wind from SSE
Gusts 2.9 mph

Today
High -- | Low -- °F
--% Chance of Precip.
Yesterday
High -- | Low -- °F
Precip. -- in
6:31 AM 7:57 PM
Full, 100% visible
Pressure 29.91 in
Visibility 10.0 miles
Clouds Few 11000 ft
Few 14000 ft
Mostly Cloudy 18000 ft
Heat Index 78 °F
Dew Point 50 °F
Humidity 41%
Rainfall 0.00 in
Snow Depth Not available.
UV 2 out of 12
Pollen 9.50 out of 12
Air Quality Not available.
Flu Activity Not available.
METAR KBIL 291553Z 24009KT 10SM FEW110 FEW140 BKN180 22/06 A3001 RMK AO2 SLP128 HZ ALQDS T02220061 $
Pressure 29.91 in
Visibility 10.0 miles
Clouds Few 11000 ft
Few 14000 ft
Mostly Cloudy 18000 ft
Heat Index 78 °F
Dew Point 50 °F
Humidity 41%
Rainfall 0.00 in
Snow Depth Not available.
UV 2 out of 12
Pollen 9.50 out of 12
Air Quality Not available.
Flu Activity Not available.
METAR KBIL 291553Z 24009KT 10SM FEW110 FEW140 BKN180 22/06 A3001 RMK AO2 SLP128 HZ ALQDS T02220061 $

10-Day Weather Forecast

×

Almanac

Astronomy

Aug. 29, 2015 Rise Set
Actual Time
Civil Twilight
Nautical Twilight
Astronomical Twilight
Moon
Length of Visible Light
Length of Day
Tomorrow will be .
, % of the Moon is Illuminated

Today's Extremes

State Highs State Lows

Community

WunderPhotos

Upload Photos

1,850,709 photos uploaded!

WunderBlogs® & News

Nearby

Air Quality

  Air Quality AQ Index Pollutant
Not available.

Snow Depth

Station Depth Elevation

Earthquake Activity

City Distance Mag. Time & Date
Minimum magnitude displayed is 2.5.

Coastal Water Temperatures

Place Temperature

Stations

Nearby Weather Stations

Station Location Temp. Windchill Dew Point Humidity Wind Precip. Elev Updated Type
                   
Fire Weather Warning
Statement as of 3:31 AM MDT on August 29, 2015

... Red flag warning remains in effect from noon today to 9 PM MDT
this evening...

* impacts: low humidities... hot temperatures... and strong gusty
winds will create critical fire weather conditions.

* Affected area:
   in south central Mt... fire weather zones 123... 124... 125... 126...
   127 and 128.

* Counties affected:
   in central Mt... Golden Valley... Musselshell... Wheatland.
   In south central Mt... Carbon... park... Stillwater... Sweet Grass
                         Yellowstone.
   In southwest Mt... Gallatin.

* Wind: southwest 10 to 20 mph with gusts 25 to 35 mph.

* Humidity: 10 to 15 percent.

* Temperatures: in the 90s.

Precautionary/preparedness actions...

Be very careful with any open flames. Check with local officials
before conducting any burning.